[[{"header":{"parameterUnit":"m.s-1","parameterCategory":1,"la1":30.2991,"la2":30.254,"lo1":-89.0895,"lo2":-89.0444,"dy":0.0017,"dx":0.0017,"nx":28,"ny":28,"refTime":"2024-07-30T09:00:00:Z","depth":0,"parameterNumber":2,"parameterNumberName":"U-component_of_WINDS"},"data":[0,0,0,0,0,0,0,0,0,0,0,0,0,0,0,0,0,0,0,0,0,0,0,0,0,0,0,0,0,0,0,0,0,0,0,0,0,0,0,0,0,0,0,0,0,0,0,0,0,0,0,0,0,0,0,0,0,0,1.2086,1.2086,0,1.2128,1.2129,1.2129,1.2144,1.2144,1.2144,1.2144,1.2189,1.2191,1.2192,0,0,0,0,0,0,0,0,0,0,0,0,0,1.2021,1.2022,1.2086,1.2086,1.2087,1.2128,1.2129,1.2129,1.2144,1.2144,1.2144,1.2144,1.2189,1.2191,1.2192,0,0,0,0,0,0,0,0,0,0,0,0,0,1.2055,1.2022,1.2086,1.2099,1.2101,1.2128,1.2129,1.2129,1.2144,1.2144,1.2144,1.2144,1.2188,1.219,1.2192,1.221,0,0,1.2199,1.22,0,0,0,0,0,0,0,0,1.2053,1.2057,1.2097,1.2098,1.21,1.2131,1.2123,1.2156,1.2144,1.2128,1.2144,1.2144,1.217,1.2174,1.2182,1.2212,1.2214,1.2199,1.22,1.2201,1.2202,0,0,0,0,0,0,0,1.205,1.2055,1.2103,1.2097,1.2099,1.2104,1.2109,1.2129,1.215,1.2129,1.213,1.2135,1.2171,1.218,1.2183,1.2215,1.2199,1.2201,1.2202,1.2203,1.2263,1.2264,0,0,0,0,0,0,1.2045,1.2053,1.2101,1.2104,1.2075,1.2106,1.2111,1.2121,1.215,1.2154,1.2135,1.2136,1.2177,1.2181,1.2185,1.2209,1.2201,1.2203,1.2204,1.2263,1.2263,1.2264,0,0,0,0,0,0,1.2044,1.205,1.2099,1.2079,1.2086,1.2107,1.2119,1.2122,1.2131,1.2154,1.2158,1.2141,1.2177,1.2182,1.2204,1.221,1.2204,1.2206,1.2262,1.2263,1.2263,1.2255,0,0,0,0,0,0,1.2042,1.2049,1.2055,1.2079,1.2087,1.2116,1.2119,1.2123,1.2134,1.2135,1.216,1.2164,1.2177,1.2201,1.2206,1.2213,1.2207,1.2262,1.2263,1.2263,1.2255,1.2255,1.2256,0,0,0,0,0,1.204,1.2051,1.2055,1.2061,1.2094,1.2117,1.2121,1.2135,1.2135,1.2142,1.2157,1.2163,1.2209,1.2203,1.2209,1.2217,1.2262,1.2262,1.2263,1.2255,1.2255,1.2256,0,0,0,0,0,0,1.2027,1.2054,1.2059,1.2078,1.2095,1.2119,1.2128,1.2135,1.2153,1.2153,1.217,1.2176,1.2197,1.2209,1.2202,1.2236,1.2236,1.2238,1.2227,1.2228,1.2228,1.2225,1.2209,0,0,0,0,0,1.2026,1.2041,1.2065,1.2079,1.2087,1.2106,1.2117,1.2126,1.2144,1.2152,1.2168,1.2187,1.2206,1.2217,1.2236,1.2257,1.2263,1.2265,1.2266,1.2266,1.2268,1.2282,1.2283,1.2266,1.2266,1.2266,0,0,1.2025,1.2042,1.205,1.2077,1.2091,1.2108,1.2112,1.2129,1.2142,1.2155,1.2176,1.2189,1.2211,1.2233,1.2244,1.2244,1.2274,1.2267,1.2267,1.2269,1.2283,1.2284,1.2286,1.2267,1.2267,1.2267,0,0,1.2032,1.2045,1.2059,1.2074,1.2095,1.2108,1.2112,1.2135,1.2145,1.2166,1.2177,1.2193,1.2224,1.224,1.2252,1.2267,1.2274,1.2272,1.2274,1.2288,1.2289,1.229,1.2297,1.2299,1.2274,1.2274,1.2274,0,1.2027,1.2052,1.2066,1.2083,1.2095,1.2108,1.2123,1.2137,1.2163,1.2172,1.2172,1.2213,1.2228,1.2255,1.2259,1.2268,1.2273,1.2269,1.2288,1.2289,1.2291,1.2297,1.2299,1.2274,1.2274,1.2274,1.2274,0,1.2046,1.2063,1.2072,1.2098,1.2111,1.2127,1.2145,1.2157,1.2166,1.218,1.2203,1.2222,1.2246,1.2253,1.2261,1.2281,1.2281,1.2284,1.2284,1.2292,1.2298,1.23,1.2273,1.2273,1.2273,1.2274,0,0,1.2045,1.2079,1.2082,1.2095,1.212,1.2134,1.2152,1.2174,1.2185,1.2203,1.2219,1.2247,1.225,1.2264,1.2275,1.2287,1.2299,1.2289,1.229,1.2291,1.2324,1.2321,1.2324,1.2304,1.2304,1.2305,1.2322,0,1.2055,1.2086,1.21,1.2125,1.2142,1.2155,1.2171,1.2189,1.2202,1.222,1.2235,1.2254,1.2257,1.2266,1.2278,1.2295,1.2306,1.2294,1.232,1.2321,1.2314,1.2327,1.2324,1.2339,1.2324,1.2325,1.2325,0,1.207,1.2089,1.2116,1.2141,1.2149,1.2162,1.2185,1.2201,1.2223,1.2232,1.2248,1.2259,1.2279,1.2278,1.2308,1.2299,1.2311,1.2321,1.2322,1.2326,1.2323,1.2331,1.2344,1.2347,1.2329,1.2329,1.2328,0,1.2068,1.2099,1.212,1.213,1.216,1.2169,1.2182,1.2204,1.2217,1.2238,1.2247,1.2269,1.2282,1.23,1.2317,1.2314,1.2346,1.2345,1.2355,1.2355,1.2361,1.236,1.2377,1.2368,1.2368,1.2368,1.2368,0,1.2078,1.2094,1.2119,1.2132,1.2151,1.2168,1.2187,1.2201,1.2221,1.2237,1.2251,1.2266,1.2288,1.2307,1.2321,1.2344,1.2349,1.2358,1.2362,1.2357,1.2356,1.2366,1.2365,1.2368,1.2368,1.2368,1.2368,0,1.2077,1.2095,1.2118,1.2145,1.2152,1.2165,1.2189,1.2202,1.2217,1.2238,1.2244,1.2268,1.2291,1.231,1.234,1.235,1.2374,1.2378,1.2367,1.2369,1.2378,1.2377,1.2401,1.2405,1.2393,1.2393,1.2393,0,1.2082,1.2095,1.2124,1.2136,1.2149,1.2167,1.2181,1.22,1.2214,1.2241,1.2252,1.2276,1.2296,1.2332,1.2353,1.2377,1.2382,1.2389,1.2385,1.2381,1.2383,1.2382,1.2384,1.2389,1.2389,1.2389,1.2389,0,1.209,1.2099,1.2118,1.214,1.2156,1.2175,1.2194,1.2204,1.2226,1.2242,1.2265,1.2281,1.2313,1.2337,1.2363,1.2378,1.2388,1.239,1.2394,1.2389,1.2382,1.2387,1.2368,1.2389,1.2389,1.2389,1.2389,1.2389,1.2093,1.2106,1.2128,1.215,1.2166,1.2184,1.2199,1.2216,1.2236,1.2262,1.2273,1.2297,1.2321,1.2357,1.2373,1.2393,1.2394,1.2399,1.2401,1.2402,1.2402,1.2379,1.2398,1.2398,1.2398,1.2398,1.2398,0,1.2103,1.2118,1.2137,1.2164,1.2181,1.2189,1.2211,1.2225,1.2247,1.2268,1.2288,1.2316,1.234,1.2363,1.2389,1.2401,1.2406,1.2407,1.2406,1.241,1.2399,1.2393,1.2403,1.2403,1.2403,1.2403,1.2403,1.2403,1.2109,1.2131,1.2143,1.2174,1.219,1.2214,1.2226,1.2244,1.2261,1.2291,1.2312,1.2326,1.2349,1.2377,1.24,1.2406,1.2415,1.2415,1.2423,1.2411,1.2411,1.241,1.2405,1.2417,1.2417,1.2433,1.2433,1.2433]},{"header":{"parameterUnit":"m.s-1","parameterCategory":1,"la1":30.2991,"la2":30.254,"lo1":-89.0895,"lo2":-89.0444,"dy":0.0017,"dx":0.0017,"nx":28,"ny":28,"refTime":"2024-07-30T09:00:00:Z","depth":0,"parameterNumber":3,"parameterNumberName":"V-component_of_WINDS"},"data":[0,0,0,0,0,0,0,0,0,0,0,0,0,0,0,0,0,0,0,0,0,0,0,0,0,0,0,0,0,0,0,0,0,0,0,0,0,0,0,0,0,0,0,0,0,0,0,0,0,0,0,0,0,0,0,0,0,0,0.6523,0.6523,0,0.6549,0.655,0.655,0.6537,0.6536,0.6535,0.6535,0.6561,0.6562,0.6564,0,0,0,0,0,0,0,0,0,0,0,0,0,0.6459,0.646,0.6523,0.6524,0.6524,0.6549,0.655,0.655,0.6537,0.6536,0.6535,0.6534,0.6561,0.6562,0.6564,0,0,0,0,0,0,0,0,0,0,0,0,0,0.6486,0.6461,0.6523,0.652,0.652,0.6549,0.655,0.655,0.6537,0.6536,0.6535,0.6534,0.656,0.6562,0.6564,0.6597,0,0,0.657,0.6571,0,0,0,0,0,0,0,0,0.6485,0.6489,0.652,0.6521,0.6521,0.6539,0.6537,0.6566,0.6537,0.6531,0.6535,0.6534,0.6554,0.6557,0.6564,0.6598,0.6599,0.657,0.6571,0.6572,0.6573,0,0,0,0,0,0,0,0.6483,0.6487,0.6534,0.6521,0.6521,0.6517,0.652,0.6542,0.6548,0.6531,0.653,0.6534,0.6554,0.6562,0.6564,0.66,0.657,0.6572,0.6573,0.6574,0.6658,0.6659,0,0,0,0,0,0,0.6481,0.6486,0.6533,0.6534,0.65,0.6519,0.6522,0.6534,0.6548,0.6549,0.6534,0.6533,0.6559,0.6562,0.6565,0.6602,0.6572,0.6574,0.6575,0.6657,0.6658,0.6659,0,0,0,0,0,0,0.648,0.6486,0.6532,0.651,0.6515,0.6521,0.6535,0.6535,0.6543,0.655,0.6551,0.6542,0.6558,0.6562,0.6588,0.6603,0.6575,0.6577,0.6655,0.6657,0.6658,0.6677,0,0,0,0,0,0,0.6478,0.6485,0.6499,0.651,0.6517,0.6555,0.6536,0.6536,0.6546,0.6545,0.6557,0.6558,0.6558,0.6585,0.659,0.6605,0.6578,0.6654,0.6656,0.6658,0.6675,0.6679,0.6683,0,0,0,0,0,0.6476,0.6504,0.65,0.6505,0.6534,0.6556,0.656,0.6559,0.6548,0.656,0.6564,0.6558,0.66,0.6588,0.6593,0.6609,0.6653,0.6656,0.6658,0.6674,0.6678,0.6683,0,0,0,0,0,0,0.6495,0.6506,0.6501,0.6534,0.6544,0.6554,0.657,0.6565,0.6579,0.6576,0.6575,0.6578,0.6604,0.6609,0.6595,0.6639,0.6625,0.6628,0.6635,0.664,0.6643,0.6641,0.658,0,0,0,0,0,0.6503,0.6521,0.6529,0.6557,0.6562,0.6565,0.6575,0.6573,0.6584,0.6588,0.6595,0.6605,0.662,0.663,0.6645,0.6676,0.6677,0.6689,0.6693,0.6696,0.6698,0.6712,0.6716,0.6666,0.6666,0.6666,0,0,0.652,0.6527,0.6539,0.6561,0.6568,0.6585,0.6569,0.6589,0.6601,0.6591,0.6615,0.662,0.6631,0.6658,0.6671,0.6664,0.6712,0.6699,0.6701,0.6702,0.6714,0.6719,0.6723,0.6668,0.6668,0.6667,0,0,0.6558,0.6567,0.659,0.6597,0.6609,0.661,0.6615,0.6625,0.6628,0.6652,0.6644,0.6658,0.6685,0.6692,0.6699,0.6736,0.673,0.6741,0.676,0.6773,0.6777,0.678,0.6791,0.6795,0.6744,0.6744,0.6744,0,0.6578,0.6604,0.6602,0.6621,0.663,0.6621,0.6642,0.6649,0.6665,0.6671,0.6662,0.6694,0.6701,0.6728,0.6737,0.6744,0.6748,0.674,0.6777,0.678,0.6783,0.6793,0.6798,0.6745,0.6745,0.6745,0.6745,0,0.6625,0.6643,0.666,0.6674,0.6684,0.6705,0.6704,0.6715,0.6711,0.6713,0.6735,0.6743,0.6758,0.6764,0.6762,0.679,0.6785,0.6777,0.6762,0.6789,0.6798,0.6803,0.6747,0.6747,0.6746,0.6746,0,0,0.6679,0.6689,0.6695,0.67,0.671,0.6723,0.6742,0.6755,0.6763,0.6774,0.6788,0.6809,0.68,0.6809,0.6807,0.6818,0.6843,0.6808,0.6808,0.6812,0.6872,0.6877,0.6882,0.6839,0.684,0.684,0.687,0,0.6716,0.6749,0.6746,0.6776,0.6791,0.6781,0.6797,0.6804,0.6805,0.6817,0.6818,0.6832,0.6821,0.6825,0.6836,0.6838,0.6855,0.6836,0.685,0.6851,0.6847,0.6887,0.6893,0.6921,0.6874,0.6875,0.6875,0,0.6765,0.6775,0.6807,0.6811,0.6817,0.6832,0.6842,0.6854,0.6861,0.6861,0.6868,0.6863,0.6879,0.6864,0.6886,0.6873,0.6878,0.6879,0.688,0.6881,0.6864,0.6887,0.693,0.6934,0.6881,0.6881,0.688,0,0.6798,0.682,0.684,0.6845,0.6852,0.6861,0.6864,0.687,0.6877,0.6886,0.689,0.6901,0.6907,0.6915,0.6912,0.6901,0.6933,0.6918,0.6931,0.6931,0.6938,0.6938,0.6981,0.6944,0.6944,0.6944,0.6944,0,0.6839,0.6858,0.6854,0.6867,0.6887,0.6883,0.6902,0.6904,0.6908,0.692,0.6912,0.6923,0.6919,0.693,0.6927,0.6944,0.6947,0.6946,0.6945,0.6946,0.6946,0.6949,0.6946,0.6945,0.6945,0.6945,0.6944,0,0.6879,0.6878,0.6899,0.6902,0.6903,0.6918,0.692,0.6931,0.6931,0.6945,0.6948,0.6947,0.6958,0.6956,0.6969,0.6967,0.6987,0.6985,0.6985,0.6984,0.6996,0.6995,0.7043,0.7048,0.7009,0.7009,0.7009,0,0.6905,0.6919,0.6923,0.693,0.6933,0.6945,0.6951,0.6947,0.6954,0.696,0.697,0.698,0.6988,0.7006,0.7006,0.7015,0.7011,0.7027,0.7012,0.7012,0.7009,0.7007,0.7008,0.703,0.703,0.7031,0.7031,0,0.695,0.6948,0.6958,0.6966,0.6974,0.698,0.6986,0.6992,0.6988,0.6996,0.7006,0.7012,0.7024,0.7033,0.7041,0.7043,0.7035,0.7036,0.7039,0.7039,0.7038,0.7037,0.6991,0.7035,0.7034,0.7034,0.7034,0.7034,0.6983,0.6993,0.6997,0.7007,0.701,0.7015,0.7024,0.7024,0.7033,0.7041,0.7038,0.705,0.7053,0.7062,0.7065,0.7073,0.7067,0.7072,0.7073,0.7074,0.7074,0.7037,0.7074,0.7074,0.7074,0.7074,0.7074,0,0.7025,0.7026,0.7036,0.7043,0.705,0.7042,0.7047,0.7054,0.7064,0.7067,0.7075,0.7085,0.7094,0.7093,0.71,0.7107,0.7103,0.7109,0.7107,0.7107,0.7081,0.7076,0.7111,0.7111,0.7111,0.7111,0.7111,0.7111,0.7049,0.7065,0.7062,0.7079,0.708,0.7091,0.7094,0.7098,0.71,0.7112,0.7119,0.7118,0.7119,0.7126,0.7133,0.7132,0.7134,0.7141,0.7139,0.7114,0.711,0.7106,0.7102,0.7141,0.7142,0.7164,0.7165,0.7165]}]]